Weather History for Fort Lewis, WA

Change the Weather History Date:

Tuesday, October 30, 2012

  Actual Average Record
Temperature  
Mean Temperature 55 °F -  
Max Temperature 59 °F 53 °F 60 °F (1999)
Min Temperature 51 °F 36 °F 24 °F (2002)
Degree Days  
Heating Degree Days 10    
Growing Degree Days 5 (Base 50)    
Moisture  
Dew Point 56 °F    
Average Humidity 97    
Maximum Humidity 100    
Minimum Humidity 88    
Precipitation  
Precipitation 0.83 in - - ()
Sea Level Pressure  
Sea Level Pressure 29.84 in    
Wind  
Wind Speed 3 mph (SE)    
Max Wind Speed 10 mph    
Max Gust Speed -    
Visibility 8 miles    
Events Rain    
Averages and records for this station are not official NWS values.
T = Trace of Precipitation, MM = Missing Value Source: NWS Daily Summary

Daily Weather History Graph

Daily Weather History Graph

Search for Another Location

Airport:

Trip Planner

Search our weather history database for the weather conditions in past years. The results will help you decide how hot, cold, wet, or windy it might be!

Date:

Astronomy

Oct. 30, 2012 Rise Set
Actual Time 7:51 AM PDT 5:56 PM PDT
Civil Twilight 7:19 AM PDT 6:27 PM PDT
Nautical Twilight 6:43 AM PDT 7:03 PM PDT
Astronomical Twilight 6:07 AM PDT 7:39 PM PDT
Moon 6:23 PM PDT (10/30) 8:48 AM PDT (10/30)
Length of Visible Light 11h 08m
Length of Day
10h 04m
Full, 99% of the Moon is Illuminated
Oct 30
Full
Nov 6
Last Quarter
Nov 13
New
Nov 20
First Quarter
Nov 28
Full

Hourly Weather History & Observations

Time (PDT) Temp. Dew Point Humidity Pressure Visibility Wind Dir Wind Speed Gust Speed Precip Events Conditions
12:39 AM 51.8 °F 51.8 °F 100% 29.97 in 10.0 mi WSW 1.2 mph - N/A   Light Drizzle
12:49 AM 53.6 °F 51.8 °F 94% 29.97 in 8.0 mi Calm Calm - N/A   Light Drizzle
12:58 AM 52.7 °F 52.5 °F 99% 29.98 in 9.0 mi Calm Calm - 0.01 in   Light Drizzle
1:10 AM 53.6 °F 51.8 °F 94% 29.96 in 10.0 mi Calm Calm - N/A   Overcast
1:19 AM 53.6 °F 51.8 °F 94% 29.96 in 10.0 mi Calm Calm - N/A   Light Drizzle
1:27 AM 53.6 °F 51.8 °F 94% 29.95 in 10.0 mi East 2.3 mph - N/A   Overcast
1:30 AM 53.6 °F 51.8 °F 94% 29.95 in 10.0 mi ENE 2.3 mph - N/A   Light Drizzle
1:40 AM 53.6 °F 51.8 °F 94% 29.94 in 9.0 mi ENE 4.6 mph - N/A   Light Drizzle
1:58 AM 53.1 °F 52.7 °F 99% 29.94 in 10.0 mi East 4.6 mph - 0.04 in   Light Drizzle
2:58 AM 53.2 °F 52.9 °F 99% 29.91 in 10.0 mi Calm Calm - 0.02 in   Light Drizzle
3:20 AM 53.6 °F 53.6 °F 100% 29.89 in 10.0 mi NNW 3.5 mph - N/A   Overcast
3:58 AM 53.1 °F 52.9 °F 99% 29.88 in 10.0 mi West 2.3 mph - 0.01 in   Overcast
4:08 AM 53.6 °F 53.6 °F 100% 29.88 in 10.0 mi Calm Calm - N/A   Light Drizzle
4:18 AM 53.6 °F 53.6 °F 100% 29.88 in 7.0 mi SW 2.3 mph - N/A   Light Drizzle
4:23 AM 53.6 °F 53.6 °F 100% 29.88 in 7.0 mi Calm Calm - N/A   Light Drizzle
4:32 AM 53.6 °F 53.6 °F 100% 29.88 in 4.0 mi Calm Calm - N/A Rain Light Rain
4:37 AM 53.6 °F 53.6 °F 100% 29.87 in 2.5 mi Calm Calm - N/A Rain Light Rain
4:42 AM 53.6 °F 53.6 °F 100% 29.87 in 3.0 mi NNW 3.5 mph - N/A Rain Light Rain
4:46 AM 53.6 °F 53.6 °F 100% 29.86 in 4.0 mi North 3.5 mph - N/A Rain Light Rain
4:51 AM 53.6 °F 53.6 °F 100% 29.87 in 7.0 mi Calm Calm - N/A   Light Drizzle
4:58 AM 53.4 °F 53.1 °F 99% 29.87 in 6.0 mi NE 2.3 mph - 0.07 in   Light Drizzle
5:08 AM 53.6 °F 53.6 °F 100% 29.86 in 7.0 mi ENE 3.5 mph - N/A   Light Drizzle
5:09 AM 53.6 °F 53.6 °F 100% 29.86 in 8.0 mi ENE 2.3 mph - N/A   Overcast
5:14 AM 53.6 °F 53.6 °F 100% 29.86 in 10.0 mi Variable 1.2 mph - N/A   Overcast
5:16 AM 53.6 °F 53.6 °F 100% 29.86 in 9.0 mi SSW 3.5 mph - N/A   Light Drizzle
5:26 AM 53.6 °F 53.6 °F 100% 29.86 in 6.0 mi Calm Calm - N/A   Light Drizzle
5:38 AM 53.6 °F 53.6 °F 100% 29.85 in 9.0 mi Calm Calm - N/A   Overcast
5:48 AM 53.6 °F 53.6 °F 100% 29.85 in 8.0 mi Calm Calm - N/A   Overcast
5:58 AM 53.2 °F 53.1 °F 99% 29.87 in 10.0 mi Calm Calm - 0.01 in   Overcast
6:25 AM 53.6 °F 53.6 °F 100% 29.86 in 8.0 mi SE 3.5 mph - N/A Rain Light Rain
6:45 AM 53.6 °F 53.6 °F 100% 29.85 in 8.0 mi ESE 2.3 mph - N/A   Overcast
6:58 AM 53.1 °F 52.9 °F 99% 29.87 in 10.0 mi SE 2.3 mph - 0.03 in   Overcast
7:33 AM 53.6 °F 53.6 °F 100% 29.85 in 10.0 mi SE 3.5 mph - N/A   Overcast
7:58 AM 55.9 °F 55.6 °F 99% 29.86 in 10.0 mi SSE 6.9 mph - N/A   Overcast
8:03 AM 55.4 °F 55.4 °F 100% 29.85 in 10.0 mi South 9.2 mph - N/A   Overcast
8:28 AM 57.2 °F 57.2 °F 100% 29.86 in 10.0 mi South 8.1 mph - N/A   Overcast
8:44 AM 57.2 °F 57.2 °F 100% 29.86 in 10.0 mi South 8.1 mph - N/A   Light Drizzle
8:52 AM 57.2 °F 57.2 °F 100% 29.86 in 10.0 mi South 9.2 mph - N/A   Overcast
8:58 AM 57.7 °F 57.2 °F 98% 29.87 in 10.0 mi SSE 9.2 mph - 0.00 in   Mostly Cloudy
9:58 AM 58.8 °F 57.4 °F 95% 29.86 in 10.0 mi SSE 8.1 mph - N/A   Scattered Clouds
10:18 AM 59.0 °F 57.2 °F 94% 29.85 in 10.0 mi SSE 9.2 mph - N/A   Partly Cloudy
10:19 AM 59.0 °F 57.2 °F 94% 29.85 in 10.0 mi SSE 9.2 mph - N/A   Light Drizzle
10:29 AM 59.0 °F 57.2 °F 94% 29.85 in 10.0 mi SSE 10.4 mph - N/A   Light Drizzle
10:39 AM 59.0 °F 57.2 °F 94% 29.85 in 10.0 mi SSE 9.2 mph - N/A   Light Drizzle
10:49 AM 59.0 °F 57.2 °F 94% 29.84 in 10.0 mi SSE 8.1 mph - N/A   Light Drizzle
10:58 AM 58.8 °F 57.9 °F 97% 29.86 in 10.0 mi SSE 5.8 mph - 0.03 in   Light Drizzle
11:05 AM 59.0 °F 57.2 °F 94% 29.85 in 10.0 mi SSE 4.6 mph - N/A   Mostly Cloudy
11:13 AM 59.0 °F 59.0 °F 100% 29.85 in 10.0 mi South 3.5 mph - N/A   Light Drizzle
11:28 AM 59.0 °F 57.2 °F 94% 29.85 in 10.0 mi Calm Calm - N/A   Mostly Cloudy
11:58 AM 59.5 °F 57.9 °F 94% 29.86 in 10.0 mi Variable 4.6 mph - 0.01 in   Mostly Cloudy
12:07 PM 59.0 °F 57.2 °F 94% 29.85 in 10.0 mi SSE 4.6 mph - N/A   Light Drizzle
12:21 PM 59.0 °F 57.2 °F 94% 29.84 in 6.0 mi SE 2.3 mph - N/A   Light Drizzle
12:25 PM 59.0 °F 57.2 °F 94% 29.84 in 5.0 mi SE 2.3 mph - N/A   Drizzle
12:36 PM 59.0 °F 57.2 °F 94% 29.84 in 3.0 mi Variable 4.6 mph - N/A Rain Light Rain
12:41 PM 59.0 °F 57.2 °F 94% 29.84 in 4.0 mi ESE 3.5 mph - N/A Rain Light Rain
12:56 PM 57.2 °F 57.2 °F 100% 29.83 in 4.0 mi SE 1.2 mph - N/A Rain Light Rain
12:58 PM 58.1 °F 57.0 °F 96% 29.84 in 4.0 mi SE 1.2 mph - 0.15 in Rain Light Rain
1:03 PM 59.0 °F 57.2 °F 94% 29.83 in 4.0 mi East 4.6 mph - N/A   Drizzle
1:08 PM 59.0 °F 57.2 °F 94% 29.83 in 3.0 mi East 3.5 mph - N/A   Drizzle
1:13 PM 57.2 °F 57.2 °F 100% 29.82 in 3.0 mi East 4.6 mph - N/A Rain Light Rain
1:33 PM 57.2 °F 57.2 °F 100% 29.82 in 4.0 mi East 4.6 mph - N/A Rain Light Rain
1:38 PM 57.2 °F 57.2 °F 100% 29.82 in 4.0 mi ENE 4.6 mph - N/A Rain Light Rain
1:58 PM 57.2 °F 56.7 °F 98% 29.82 in 4.0 mi ENE 4.6 mph - 0.15 in   Light Drizzle
2:43 PM 57.2 °F 57.2 °F 100% 29.79 in 8.0 mi ENE 4.6 mph - N/A   Light Drizzle
2:48 PM 57.2 °F 55.4 °F 94% 29.79 in 8.0 mi ENE 4.6 mph - N/A   Light Drizzle
2:58 PM 56.7 °F 56.1 °F 98% 29.81 in 9.0 mi ENE 4.6 mph - 0.07 in   Light Drizzle
3:37 PM 57.2 °F 55.4 °F 94% 29.78 in 10.0 mi ENE 2.3 mph - N/A   Overcast
3:58 PM 56.7 °F 56.1 °F 98% 29.79 in 10.0 mi East 3.5 mph - 0.02 in   Mostly Cloudy
4:11 PM 57.2 °F 57.2 °F 100% 29.78 in 8.0 mi ESE 3.5 mph - N/A   Drizzle
4:34 PM 57.2 °F 57.2 °F 100% 29.79 in 5.0 mi SE 5.8 mph - N/A Rain Light Rain
4:58 PM 57.4 °F 57.0 °F 99% 29.79 in 10.0 mi South 3.5 mph - 0.06 in   Light Drizzle
5:00 PM 57.2 °F 57.2 °F 100% 29.78 in 10.0 mi SSE 3.5 mph - N/A   Mostly Cloudy
5:01 PM 57.2 °F 57.2 °F 100% 29.78 in 10.0 mi SSE 3.5 mph - N/A   Light Drizzle
5:58 PM 57.4 °F 57.2 °F 99% 29.78 in 10.0 mi ESE 5.8 mph - 0.05 in   Light Drizzle
6:08 PM 57.2 °F 57.2 °F 100% 29.77 in 10.0 mi SE 4.6 mph - N/A   Overcast
6:58 PM 57.7 °F 57.4 °F 99% 29.77 in 10.0 mi SE 4.6 mph - 0.01 in   Partly Cloudy
7:58 PM 57.9 °F 57.4 °F 98% 29.76 in 10.0 mi ESE 8.1 mph - 0.01 in   Mostly Cloudy
7:59 PM 59.0 °F 57.2 °F 94% 29.75 in 10.0 mi SE 8.1 mph - N/A   Light Drizzle
8:19 PM 59.0 °F 57.2 °F 94% 29.75 in 10.0 mi SSE 9.2 mph - N/A   Overcast
8:32 PM 59.0 °F 57.2 °F 94% 29.75 in 10.0 mi South 5.8 mph - N/A   Light Drizzle
8:46 PM 59.0 °F 57.2 °F 94% 29.75 in 9.0 mi ESE 6.9 mph - N/A   Overcast
8:58 PM 58.3 °F 57.7 °F 98% 29.76 in 10.0 mi ESE 3.5 mph - 0.02 in   Mostly Cloudy
9:58 PM 57.7 °F 57.6 °F 99% 29.76 in 10.0 mi East 1.2 mph - N/A   Mostly Cloudy
10:19 PM 57.2 °F 57.2 °F 100% 29.76 in 9.0 mi ESE 4.6 mph - N/A   Light Drizzle
10:28 PM 57.2 °F 57.2 °F 100% 29.76 in 9.0 mi ESE 5.8 mph - N/A   Overcast
10:58 PM 57.4 °F 56.8 °F 98% 29.76 in 10.0 mi SE 4.6 mph - 0.03 in   Overcast
11:39 PM 59.0 °F 57.2 °F 94% 29.75 in 10.0 mi SSE 10.4 mph - N/A   Light Drizzle
11:51 PM 59.0 °F 55.4 °F 88% 29.75 in 10.0 mi SSE 8.1 mph - N/A   Overcast
11:58 PM 58.3 °F 56.1 °F 93% 29.76 in 10.0 mi SSE 8.1 mph - 0.03 in   Overcast